| time (UTC) | temp F | wind direction | speed MPH | gust MPH | rain 1hr in | rain 24hr in | rain mn in | humidity % | barometer mb |
| 20260510084156 | 59 | 140 | 0.0 | 1.0 | 0.00 | 0.00 | 0.00 | 95 | 1013.2 |
| 20260510083202 | 59 | 274 | 0.0 | 0.0 | 0.00 | 0.00 | 0.00 | 95 | 1013.1 |
| 20260510082136 | 59 | 274 | 0.0 | 0.0 | 0.00 | 0.00 | 0.00 | 95 | 1013.3 |
| 20260510080015 | 59 | 274 | 0.0 | 0.0 | 0.00 | 0.00 | 0.00 | 95 | 1013.4 |
| 20260510075037 | 58 | 274 | 0.0 | 0.0 | 0.00 | 0.00 | 0.00 | 95 | 1013.5 |
| 20260510074049 | 58 | 274 | 0.0 | 1.0 | 0.00 | 0.00 | 0.00 | 94 | 1013.6 |
| 20260510073044 | 58 | 272 | 0.0 | 2.0 | 0.00 | 0.00 | 0.00 | 95 | 1013.6 |
| 20260510072040 | 58 | 259 | 0.0 | 2.0 | 0.00 | 0.00 | 0.00 | 94 | 1013.7 |
| 20260510071044 | 58 | 320 | 0.0 | 0.0 | 0.00 | 0.00 | 0.00 | 95 | 1013.6 |
| 20260510070041 | 58 | 320 | 0.0 | 0.0 | 0.00 | 0.00 | 0.00 | 94 | 1013.6 |
| 20260510063932 | 58 | 320 | 0.0 | 0.0 | 0.00 | 0.00 | 0.00 | 94 | 1013.7 |
| 20260510062914 | 58 | 320 | 0.0 | 0.0 | 0.00 | 0.00 | 0.00 | 94 | 1013.6 |
| 20260510061908 | 58 | 301 | 0.0 | 0.0 | 0.00 | 0.00 | 0.00 | 94 | 1013.6 |
| 20260510060926 | 58 | 301 | 0.0 | 0.0 | 0.00 | 0.00 | 0.00 | 94 | 1013.6 |
| 20260510055931 | 58 | 307 | 0.0 | 0.0 | 0.00 | 0.00 | 0.00 | 94 | 1013.6 |
| 20260510054939 | 58 | 301 | 0.0 | 3.0 | 0.00 | 0.00 | 0.00 | 94 | 1013.7 |
| 20260510052857 | 58 | 287 | 0.0 | 3.0 | 0.00 | 0.00 | 0.00 | 94 | 1013.8 |
| 20260510050732 | 58 | 312 | 1.0 | 5.0 | 0.00 | 0.00 | 0.00 | 94 | 1013.7 |
| 20260510045750 | 58 | 272 | 1.0 | 5.0 | 0.00 | 0.00 | 0.00 | 94 | 1013.9 |
| 20260510044724 | 58 | 285 | 1.0 | 7.0 | 0.00 | 0.00 | 0.00 | 94 | 1013.7 |
| 20260510043739 | 58 | 311 | 2.0 | 7.0 | 0.00 | 0.00 | 0.00 | 94 | 1013.7 |
| 20260510041542 | 58 | 274 | 1.0 | 5.0 | 0.00 | 0.00 | 0.00 | 93 | 1013.5 |
| 20260510034240 | 58 | 354 | 4.0 | 11.0 | 0.00 | 0.00 | 0.00 | 92 | 1013.3 |
| 20260510033243 | 59 | 240 | 4.0 | 11.0 | 0.00 | 0.00 | 0.00 | 93 | 1013.1 |
| 20260510032244 | 59 | 300 | 3.0 | 8.0 | 0.00 | 0.00 | 0.00 | 93 | 1013.0 |
| 20260510031215 | 59 | 250 | 3.0 | 8.0 | 0.00 | 0.00 | 0.00 | 92 | 1012.8 |
| 20260510030156 | 59 | 261 | 4.0 | 8.0 | 0.00 | 0.00 | 0.00 | 92 | 1012.8 |
| 20260510023958 | 59 | 290 | 5.0 | 10.0 | 0.00 | 0.00 | 0.00 | 92 | 1012.5 |
| 20260510022948 | 59 | 293 | 6.0 | 11.0 | 0.00 | 0.00 | 0.00 | 92 | 1012.5 |
| 20260510022009 | 60 | 270 | 6.0 | 11.0 | 0.00 | 0.00 | 0.00 | 91 | 1012.5 |
| 20260510020959 | 60 | 2 | 5.0 | 9.0 | 0.00 | 0.00 | 0.00 | 91 | 1012.4 |
| 20260510015931 | 60 | 307 | 4.0 | 8.0 | 0.00 | 0.00 | 0.00 | 90 | 1012.3 |
| 20260510014901 | 60 | 263 | 6.0 | 11.0 | 0.00 | 0.00 | 0.00 | 91 | 1012.2 |
| 20260510013839 | 60 | 319 | 6.0 | 11.0 | 0.00 | 0.00 | 0.00 | 90 | 1012.3 |
| 20260510012854 | 61 | 352 | 6.0 | 12.0 | 0.00 | 0.00 | 0.00 | 90 | 1012.2 |
| 20260510011842 | 61 | 266 | 6.0 | 13.0 | 0.00 | 0.00 | 0.00 | 89 | 1012.2 |
| 20260510010904 | 62 | 269 | 6.0 | 13.0 | 0.00 | 0.00 | 0.00 | 89 | 1012.2 |
| 20260510005913 | 62 | 247 | 6.0 | 12.0 | 0.00 | 0.00 | 0.00 | 88 | 1012.2 |
| 20260510004853 | 62 | 275 | 6.0 | 9.0 | 0.00 | 0.00 | 0.00 | 87 | 1012.2 |
| 20260510003913 | 62 | 272 | 5.0 | 11.0 | 0.00 | 0.00 | 0.00 | 87 | 1012.2 |
| 20260510002856 | 63 | 248 | 6.0 | 11.0 | 0.00 | 0.00 | 0.00 | 87 | 1012.2 |
| 20260510001845 | 63 | 250 | 6.0 | 9.0 | 0.00 | 0.00 | 0.00 | 86 | 1012.2 |
| 20260510000902 | 63 | 271 | 5.0 | 9.0 | 0.00 | 0.00 | 0.00 | 86 | 1012.2 |
| 20260509235922 | 63 | 295 | 6.0 | 11.0 | 0.00 | 0.00 | 0.00 | 85 | 1012.2 |
| 20260509234916 | 63 | 231 | 6.0 | 11.0 | 0.00 | 0.00 | 0.00 | 85 | 1012.3 |
| 20260509231729 | 65 | 266 | 7.0 | 10.0 | 0.00 | 0.00 | 0.00 | 82 | 1012.3 |
| 20260509230707 | 65 | 259 | 7.0 | 12.0 | 0.00 | 0.00 | 0.00 | 81 | 1012.4 |
| 20260509225717 | 65 | 152 | 7.0 | 12.0 | 0.00 | 0.00 | 0.00 | 82 | 1012.4 |
| 20260509224724 | 65 | 359 | 6.0 | 12.0 | 0.00 | 0.00 | 0.00 | 81 | 1012.5 |
| 20260509223713 | 66 | 276 | 6.0 | 10.0 | 0.00 | 0.00 | 0.00 | 79 | 1012.5 |
| 20260509222724 | 66 | 60 | 6.0 | 11.0 | 0.00 | 0.00 | 0.00 | 81 | 1012.6 |
| 20260509220649 | 66 | 224 | 6.0 | 11.0 | 0.00 | 0.00 | 0.00 | 79 | 1013.1 |
| 20260509215633 | 67 | 221 | 6.0 | 11.0 | 0.00 | 0.00 | 0.00 | 80 | 1013.2 |
| 20260509211223 | 67 | 302 | 6.0 | 12.0 | 0.00 | 0.00 | 0.00 | 78 | 1013.5 |
| 20260509205122 | 67 | 277 | 6.0 | 9.0 | 0.00 | 0.00 | 0.00 | 78 | 1013.6 |
| 20260509204126 | 68 | 256 | 6.0 | 9.0 | 0.00 | 0.00 | 0.00 | 78 | 1013.6 |
| 20260509203137 | 68 | 257 | 6.0 | 11.0 | 0.00 | 0.00 | 0.00 | 77 | 1013.8 |
| 20260509202148 | 68 | 226 | 6.0 | 11.0 | 0.00 | 0.00 | 0.00 | 78 | 1013.7 |
| 20260509201158 | 68 | 273 | 6.0 | 9.0 | 0.00 | 0.00 | 0.00 | 77 | 1013.8 |
| 20260509200206 | 68 | 231 | 6.0 | 9.0 | 0.00 | 0.00 | 0.00 | 78 | 1013.8 |
| 20260509195146 | 68 | 232 | 6.0 | 9.0 | 0.00 | 0.00 | 0.00 | 78 | 1013.9 |
| 20260509194154 | 68 | 219 | 6.0 | 8.0 | 0.00 | 0.00 | 0.00 | 78 | 1013.8 |
| 20260509193142 | 68 | 238 | 6.0 | 8.0 | 0.00 | 0.00 | 0.00 | 78 | 1014.0 |
| 20260509192206 | 68 | 238 | 5.0 | 9.0 | 0.00 | 0.00 | 0.00 | 79 | 1014.1 |
| 20260509191229 | 68 | 239 | 6.0 | 9.0 | 0.00 | 0.00 | 0.00 | 79 | 1014.2 |
| 20260509190241 | 67 | 238 | 6.0 | 9.0 | 0.00 | 0.00 | 0.00 | 80 | 1014.1 |
| 20260509185231 | 67 | 231 | 6.0 | 9.0 | 0.00 | 0.00 | 0.00 | 81 | 1014.3 |
| 20260509184207 | 67 | 291 | 6.0 | 9.0 | 0.00 | 0.00 | 0.00 | 81 | 1014.4 |
| 20260509182019 | 66 | 15 | 5.0 | 9.0 | 0.00 | 0.00 | 0.00 | 83 | 1014.3 |
| 20260509180954 | 65 | 288 | 4.0 | 9.0 | 0.00 | 0.00 | 0.00 | 84 | 1014.3 |
| 20260509175930 | 65 | 256 | 4.0 | 8.0 | 0.00 | 0.00 | 0.00 | 85 | 1014.4 |
| 20260509174932 | 65 | 284 | 4.0 | 8.0 | 0.00 | 0.00 | 0.00 | 85 | 1014.5 |
| 20260509173901 | 64 | 316 | 5.0 | 8.0 | 0.00 | 0.00 | 0.00 | 86 | 1014.4 |
| 20260509171735 | 64 | 300 | 4.0 | 8.0 | 0.00 | 0.00 | 0.00 | 87 | 1014.3 |
| 20260509170731 | 63 | 289 | 4.0 | 8.0 | 0.00 | 0.00 | 0.00 | 88 | 1014.1 |
| 20260509165719 | 63 | 317 | 3.0 | 6.0 | 0.00 | 0.00 | 0.00 | 87 | 1014.1 |
| 20260509164714 | 64 | 257 | 3.0 | 4.0 | 0.00 | 0.00 | 0.00 | 86 | 1014.1 |
| 20260509162544 | 64 | 288 | 0.0 | 3.0 | 0.00 | 0.00 | 0.00 | 84 | 1014.0 |
| 20260509161608 | 64 | 99 | 0.0 | 0.0 | 0.00 | 0.00 | 0.00 | 87 | 1014.1 |
| 20260509160610 | 63 | 96 | 0.0 | 3.0 | 0.00 | 0.00 | 0.00 | 87 | 1014.1 |
| 20260509154454 | 62 | 134 | 1.0 | 3.0 | 0.00 | 0.00 | 0.00 | 89 | 1014.1 |
| 20260509153459 | 62 | 153 | 0.0 | 1.0 | 0.00 | 0.00 | 0.00 | 90 | 1014.1 |
| 20260509152427 | 62 | 96 | 0.0 | 0.0 | 0.00 | 0.00 | 0.00 | 91 | 1014.1 |
| 20260509151416 | 61 | 141 | 0.0 | 1.0 | 0.00 | 0.00 | 0.00 | 91 | 1014.1 |
| 20260509150426 | 61 | 61 | 0.0 | 0.0 | 0.00 | 0.00 | 0.00 | 92 | 1014.1 |
| 20260509145433 | 61 | 61 | 0.0 | 0.0 | 0.00 | 0.00 | 0.00 | 92 | 1014.1 |
| 20260509144408 | 61 | 274 | 0.0 | 0.0 | 0.00 | 0.00 | 0.00 | 92 | 1014.1 |
| 20260509143430 | 60 | 304 | 0.0 | 0.0 | 0.00 | 0.00 | 0.00 | 92 | 1014.1 |
| 20260509141225 | 60 | 331 | 0.0 | 0.0 | 0.00 | 0.00 | 0.00 | 93 | 1014.0 |
| 20260509140243 | 60 | 34 | 0.0 | 1.0 | 0.00 | 0.00 | 0.00 | 93 | 1013.9 |
| 20260509135234 | 60 | 282 | 0.0 | 0.0 | 0.00 | 0.00 | 0.00 | 92 | 1013.9 |
| 20260509134222 | 60 | 304 | 0.0 | 0.0 | 0.00 | 0.00 | 0.00 | 93 | 1013.8 |
| 20260509133149 | 60 | 307 | 0.0 | 2.0 | 0.00 | 0.00 | 0.00 | 92 | 1013.8 |
| 20260509132208 | 60 | 314 | 1.0 | 3.0 | 0.00 | 0.00 | 0.00 | 92 | 1013.7 |
| 20260509131136 | 60 | 319 | 0.0 | 3.0 | 0.00 | 0.00 | 0.00 | 92 | 1013.7 |
| 20260509130147 | 60 | 300 | 0.0 | 5.0 | 0.00 | 0.00 | 0.00 | 92 | 1013.6 |
| 20260509125149 | 60 | 250 | 1.0 | 5.0 | 0.00 | 0.00 | 0.00 | 92 | 1013.5 |
| 20260509124139 | 60 | 231 | 0.0 | 1.0 | 0.00 | 0.00 | 0.00 | 92 | 1013.5 |
| 20260509123156 | 60 | 283 | 0.0 | 0.0 | 0.00 | 0.00 | 0.00 | 92 | 1013.6 |
| 20260509122137 | 60 | 285 | 0.0 | 2.0 | 0.00 | 0.00 | 0.00 | 92 | 1013.5 |
| 20260509115943 | 60 | 205 | 0.0 | 0.0 | 0.00 | 0.00 | 0.00 | 92 | 1013.5 |
| 20260509113821 | 60 | 205 | 0.0 | 0.0 | 0.00 | 0.00 | 0.00 | 91 | 1013.6 |
| 20260509112824 | 60 | 275 | 0.0 | 1.0 | 0.00 | 0.00 | 0.00 | 91 | 1013.6 |
| 20260509111840 | 60 | 290 | 0.0 | 0.0 | 0.00 | 0.00 | 0.00 | 91 | 1013.5 |
| 20260509110810 | 60 | 272 | 0.0 | 1.0 | 0.00 | 0.00 | 0.00 | 91 | 1013.5 |
| 20260509105739 | 60 | 344 | 0.0 | 2.0 | 0.00 | 0.00 | 0.00 | 91 | 1013.6 |
| 20260509104739 | 60 | 323 | 0.0 | 0.0 | 0.00 | 0.00 | 0.00 | 91 | 1013.5 |
| 20260509103756 | 60 | 264 | 0.0 | 1.0 | 0.00 | 0.00 | 0.00 | 91 | 1013.8 |
| 20260509102751 | 60 | 124 | 0.0 | 0.0 | 0.00 | 0.00 | 0.00 | 91 | 1013.7 |
| 20260509100627 | 60 | 124 | 0.0 | 0.0 | 0.00 | 0.00 | 0.00 | 91 | 1013.7 |
| 20260509095644 | 60 | 124 | 0.0 | 0.0 | 0.00 | 0.00 | 0.00 | 91 | 1013.8 |
| 20260509094706 | 60 | 118 | 1.0 | 3.0 | 0.00 | 0.00 | 0.00 | 91 | 1013.8 |
| 20260509093641 | 60 | 105 | 0.0 | 2.0 | 0.00 | 0.00 | 0.00 | 91 | 1013.9 |
| 20260509092616 | 60 | 169 | 0.0 | 0.0 | 0.00 | 0.00 | 0.00 | 91 | 1013.9 |
| 20260509091547 | 60 | 169 | 0.0 | 0.0 | 0.00 | 0.00 | 0.00 | 91 | 1014.0 |
| 20260509090519 | 60 | 169 | 0.0 | 0.0 | 0.00 | 0.00 | 0.00 | 91 | 1014.0 |